Home > Weather > Bergheim > Past weeks

Flag for Germany Past Weather in Bergheim, North Rhine-Westphalia, Germany — Yesterday and Last 2 Weeks

Now
72 °F

Mild.


Feels Like: 75 °F
Forecast: 68 / 89 °F
Wind: 5 mph from South

Location: Noervenich

Current Time: Aug 25, 2016 at 1:32:58 AM

Latest Report: Aug 25, 2016 at 12:20 AM


Visibility: 6 mi

Pressure: 30.09 "Hg

Humidity: 69%

Dew Point: 61 °F

Location of BergheimLocation

Past Weather in Bergheim — Graph

°F

Bergheim Temperature Yesterday

Maximum temperature yesterday: 90 °F (at 4:20 PM)
Minimum temperature yesterday: 63 °F (at 3:20 AM)
Average temperature yesterday: 76 °F

High & Low Weather Summary for the Past Weeks

 TemperatureHumidityPressure
High90 °F (Aug 24, 4:20 PM)100% (Aug 11, 10:20 PM)30.33 "Hg (Aug 11, 10:20 PM)
Low46 °F (Aug 11, 5:20 AM)33% (Aug 24, 4:20 PM)29.77 "Hg (Aug 18, 4:20 PM)
Average65 °F72%30.10 "Hg
* Reported Aug 10 12:20 AM — Aug 25 12:20 AM, Bergheim, Weather by CustomWeather, © 2016

Note: Actual official high and low records may vary slightly from our data, if they occured in-between our weather recording intervals... More about our weather records

Advertising

Bergheim Weather History for the Previous 24 Hours

Scroll right to see more
 ConditionsComfort  
Time TempWeatherWind HumidityBarometerVisibility
12:20 AM
Thu, Aug 25
72 °FMild.5 mph69%30.09 "Hg6 mi
11:20 PM
Wed, Aug 24
73 °FMild.3 mph65%30.12 "Hg6 mi
10:20 PM77 °FWarm.3 mph57%30.12 "Hg6 mi
9:20 PM79 °FPassing clouds.5 mph54%30.12 "HgN/A
8:20 PM82 °FPassing clouds.7 mph45%30.09 "HgN/A
7:20 PM88 °FPassing clouds.9 mph38%30.09 "HgN/A
6:20 PM88 °FPleasantly warm.9 mph35%30.09 "HgN/A
5:20 PM90 °FHot.10 mph33%30.12 "HgN/A
4:20 PM90 °FHot.13 mph33%30.12 "HgN/A
3:20 PM88 °FPleasantly warm.10 mph38%30.12 "HgN/A
2:20 PM88 °FWarm.10 mph40%30.15 "HgN/A
1:20 PM86 °FWarm.9 mph43%30.15 "HgN/A
12:20 PM84 °FWarm.8 mph45%30.18 "HgN/A
11:20 AM81 °FWarm.9 mph51%30.18 "HgN/A
10:20 AM77 °FWarm.9 mph54%30.18 "HgN/A
9:20 AM72 °FMild.6 mph61%30.21 "HgN/A
8:20 AM66 °FMild.5 mph68%30.21 "HgN/A
7:20 AM63 °FMild.2 mph73%30.21 "HgN/A
6:20 AM63 °FMild.5 mph73%30.18 "HgN/A
5:20 AM63 °FMild.6 mph77%30.18 "HgN/A
4:20 AM63 °FMild.5 mph77%30.21 "HgN/A
3:20 AM63 °FMild.5 mph77%30.21 "HgN/A
2:20 AM64 °FMild.6 mph78%30.21 "HgN/A
1:20 AM66 °FMild.5 mph73%30.24 "HgN/A
Weather by CustomWeather, © 2016

See weather overviewHow to use our weather pages